TimeCST,TemperatureF,Dew PointF,Humidity,Sea Level PressureIn,VisibilityMPH,Wind Direction,Wind SpeedMPH,Gust SpeedMPH,PrecipitationIn,Events,Conditions,WindDirDegrees,DateUTC
12:53 AM,21.9,17.1,82,30.08,10.0,West,5.8,-,N/A,,Clear,260,2013-02-23 06:53:00
1:53 AM,19.9,16.0,85,30.08,10.0,West,5.8,-,N/A,,Clear,260,2013-02-23 07:53:00
2:53 AM,19.0,16.0,88,30.06,8.0,WSW,4.6,-,N/A,,Clear,250,2013-02-23 08:53:00
3:53 AM,19.0,16.0,88,30.05,8.0,West,4.6,-,N/A,,Clear,260,2013-02-23 09:53:00
4:53 AM,17.1,14.0,88,30.05,7.0,Calm,Calm,-,N/A,,Clear,0,2013-02-23 10:53:00
5:53 AM,16.0,14.0,92,30.05,7.0,SW,5.8,-,N/A,,Clear,230,2013-02-23 11:53:00
6:53 AM,16.0,14.0,92,30.04,5.0,WSW,5.8,-,N/A,,Clear,240,2013-02-23 12:53:00
7:53 AM,19.9,17.1,89,30.04,7.0,West,5.8,-,N/A,,Clear,270,2013-02-23 13:53:00
8:53 AM,21.9,18.0,85,30.04,9.0,Calm,Calm,-,N/A,,Clear,0,2013-02-23 14:53:00
9:53 AM,25.0,18.0,75,30.04,10.0,Calm,Calm,-,N/A,,Clear,0,2013-02-23 15:53:00
10:53 AM,27.0,18.0,69,30.06,10.0,WSW,8.1,-,N/A,,Clear,250,2013-02-23 16:53:00
11:53 AM,30.0,18.0,61,30.05,10.0,Calm,Calm,-,N/A,,Clear,0,2013-02-23 17:53:00
12:53 PM,32.0,18.0,56,30.02,10.0,Variable,3.5,-,N/A,,Clear,0,2013-02-23 18:53:00
1:53 PM,34.0,19.0,54,30.01,10.0,NW,4.6,-,N/A,,Clear,310,2013-02-23 19:53:00
2:53 PM,34.0,19.0,54,29.99,10.0,SW,6.9,-,N/A,,Clear,230,2013-02-23 20:53:00
3:53 PM,36.0,19.0,50,29.99,10.0,West,9.2,-,N/A,,Clear,280,2013-02-23 21:53:00
4:53 PM,35.1,18.0,50,29.99,10.0,WNW,3.5,-,N/A,,Clear,290,2013-02-23 22:53:00
5:53 PM,33.1,19.0,56,30.00,10.0,NW,4.6,-,N/A,,Clear,310,2013-02-23 23:53:00
6:53 PM,30.0,19.9,66,30.01,10.0,Calm,Calm,-,N/A,,Scattered Clouds,0,2013-02-24 00:53:00
7:53 PM,25.0,19.9,81,30.02,10.0,Calm,Calm,-,N/A,,Clear,0,2013-02-24 01:53:00
8:53 PM,25.0,19.0,78,30.01,10.0,Calm,Calm,-,N/A,,Clear,0,2013-02-24 02:53:00
9:53 PM,26.1,18.0,71,30.01,10.0,SE,3.5,-,N/A,,Clear,130,2013-02-24 03:53:00
10:53 PM,23.0,18.0,81,30.02,10.0,SSW,3.5,-,N/A,,Clear,210,2013-02-24 04:53:00
11:53 PM,19.9,16.0,85,30.01,10.0,South,3.5,-,N/A,,Clear,190,2013-02-24 05:53:00